Regional Weather Roundup
Issued by NWS

Home | Current Version | Previous Version | Text Only | Print | Product List | Glossary Off
Versions: 1 2 3 4 5 6 7 8 9 10 11 12 13 14 15 16 17 18 19 20 21 22 23 24 25 26 27 28 29 30 31 32 33 34 35 36 37 38 39 40 41 42 43 44 45 46 47 48 49 50

000
ASUS43 KMKX 222100
RWRWI

WISCONSIN REGIONAL WEATHER ROUNDUP
NATIONAL WEATHER SERVICE MILWAUKEE/SULLIVAN WI
400 PM CDT FRI AUG 22 2014

NOTE: "FAIR" INDICATES FEW OR NO CLOUDS BELOW 12,000 FEET WITH NO
SIGNIFICANT WEATHER AND/OR OBSTRUCTIONS TO VISIBILITY.

WIZ001-002-006>008-014>016-023>028-222200-
NORTHWEST WISCONSIN

CITY           SKY/WX    TMP DP  RH WIND       PRES   REMARKS
SUPERIOR ARPT  CLOUDY    64  61  91 E7        30.00F
ASHLAND        CLOUDY    67  63  87 NE8       30.00F
HAYWARD        CLOUDY    73  68  84 NE6       29.98F
SIREN          CLOUDY    73  67  81 N3        29.98S
RICE LAKE      CLOUDY    76  69  80 N5        29.98S
LADYSMITH      MOSUNNY   79  72  79 N8        29.98F HX  81
EAU CLAIRE     MOSUNNY   85  70  60 W8        29.93F HX  89
MENOMONIE      PTCLDY    84  70  61 W10       29.94S HX  88
NEW RICHMOND   CLOUDY    74  69  85 N3        29.98S
OSCEOLA        CLOUDY    74  71  91 CALM      30.00S
$$

WIZ003>005-009-010-017-018-222200-
NORTH CENTRAL WISCONSIN

CITY           SKY/WX    TMP DP  RH WIND       PRES   REMARKS
WOODRUFF       CLOUDY    77  71  82 CALM      29.99R
RHINELANDER    CLOUDY    71  70  96 S6        30.00R FOG
EAGLE RIVER    CLOUDY    72  70  95 CALM      29.98F
LAND O LAKES   CLOUDY    73  69  87 E5        30.00S
PHILLIPS       CLOUDY    73  70  89 CALM      29.98S
TOMAHAWK       CLOUDY    71  69  92 CALM      29.98F FOG
MEDFORD        CLOUDY    74  73  96 E3        29.97S
MERRILL        CLOUDY    72  72  99 CALM      29.97S FOG
$$

WIZ029-030-035-036-043>047-222200-
CENTRAL WISCONSIN

CITY           SKY/WX    TMP DP  RH WIND       PRES   REMARKS
WAUSAU         PTSUNNY   79  73  82 NW8       29.95R HAZE    HX  82
MOSINEE        PTSUNNY   81  75  83 W10       29.96S HX  86
MARSHFIELD     MOSUNNY   81  74  79 SW6       29.94F HX  86
STEVENS POINT  PTSUNNY   83  72  70 W8        29.94F HX  88
WAUPACA        MOSUNNY   88  74  61 SE6       29.93S HX  96
WAUTOMA        NOT AVBL
WISC RAPIDS    MOSUNNY   85  73  67 NW8       29.94F HX  91
CAMP DOUGLAS   NOT AVBL
$$

WIZ011>013-019>022-031-037>040-048>050-222200-
NORTHEAST WISCONSIN

CITY           SKY/WX    TMP DP  RH WIND       PRES   REMARKS
ANTIGO         CLOUDY    72  71  96 E5        29.98S FOG
STURGEON BAY   PTSUNNY   73  70  88 E5        29.97S
GREEN BAY      SUNNY     82  73  74 E7        29.94S HX  87
MANITOWOC      PTSUNNY   73  72  94 SE8       29.96S
APPLETON       MOSUNNY   82  72  69 VRB3      29.94F HX  87
CLINTONVILLE   CLOUDY    81  72  74 CALM      29.93S HX  84
OSHKOSH        SUNNY     83  74  74 E6        29.93R HX  89
$$

WIZ032>034-041-042-053>061-222200-
SOUTHWEST WISCONSIN

CITY           SKY/WX    TMP DP  RH WIND       PRES   REMARKS
LA CROSSE      SUNNY     86  75  69 VRB3      29.91F HX  95
SPARTA         PTSUNNY   85  73  66 W3        29.93F HX  92
VIROQUA        MOCLDY    85  76  75 CALM      29.94F HX  94
BOSCOBEL       SUNNY     92  72  51 VRB6      29.91S HX  99
PRAIRIE DU CHI MOSUNNY   88  72  58 CALM      29.90S HX  94
PLATTEVILLE    FAIR      86  76  73 CALM      29.94S HX  96
$$

WIZ056-057-062-063-064-067-068-222200-
SOUTH CENTRAL WISCONSIN

CITY           SKY/WX    TMP DP  RH WIND       PRES   REMARKS
BARABOO/DELLS  SUNNY     90  67  47 SW3       29.92F HX  93
LONE ROCK      NOT AVBL
WATERTOWN      SUNNY     87  75  68 CALM      29.91F HX  96
MADISON        MOSUNNY   88  72  58 NW5       29.92S HX  94
MIDDLETON      FAIR      88  71  57 NW3       29.93S HX  94
MONROE         MOSUNNY   86  73  66 W5        29.93F HX  93
JANESVILLE     MOSUNNY   88  73  62 W5        29.91F HX  96
$$

WIZ051-052-058>065-066-070>072-222200-
SOUTHEAST WISCONSIN

CITY           SKY/WX    TMP DP  RH WIND       PRES   REMARKS
MILWAUKEE      MOSUNNY   79  72  79 E12       29.93S HX  82
WAUKESHA       PTSUNNY   84  73  70 S3        29.94F HX  91
MILWAUKEE/TIMM SUNNY     82  70  65 E8        29.94S HX  86
RACINE         MOSUNNY   82  72  71 E8        29.94F HX  87
BURLINGTON     MOSUNNY   84  73  71 CALM      29.92F HX  90
KENOSHA        MOSUNNY   84  75  74 VRB3      29.93F HX  92
FOND DU LAC    MOSUNNY   87  70  56 W3        29.93S HX  92
SHEBOYGAN      MOSUNNY   77  71  82 SE12      29.95S
WEST BEND      PTSUNNY   79  70  73 E10       29.94S HX  81
JUNEAU         SUNNY     85  69  60 CALM      29.94S HX  89
$$

LSZ147-162-222200-
LAKE SUPERIOR

STATION/POSITION TIME  TEMP    WIND        PRES    WAVE
                       AIR SEA DIR/SP/G            HT/PER
                 (UTC) (F)     (DEG/KT/KT) (MB)    (FT/S)
W MID LAKE BUOY  1950   58 58   30/ 12/ 14 1015.2F   2/ 4
DEVILS ISLAND    2000   60      50/  9/ 10 1016.3R
PORT WING        2000   59      30/  8/  9 1016.3
SAXON HARBOR     2000   63     350/  3/  5 1015.9R
$$

LMZ867-665-643>646-222200-
LAKE MICHIGAN

STATION/POSITION TIME  TEMP    WIND        PRES    WAVE
                       AIR SEA DIR/SP/G            HT/PER
                 (UTC) (F)     (DEG/KT/KT) (MB)    (FT/S)
N MID LAKE BUOY  1950   68 67   90/  6/  6 1014.8F   0
NORTHPORT PIER   2000   68     100/  6/  6 1014.9F
SISTER BAY       2041   84     100/  8/ 11   N/A
KEWAUNEE LAKESHO 2000   69     100/  4/  5 1013.9F
SHEBOYGAN LAKESH 2000   69 65   80/  6/  6 1014.4F
ATWATER BUOY     2000   72      40/  6/  6 1015.1S
MILWAUKEE LAKESH 2000   73      50/  6/  7   N/A
S MID LAKE BUOY  1950   72 71  150/  4/  4 1013.8F   0
KENOSHA   LAKESH 2000   73      30/  3/  3 1013.2F
$$

TC  - TEMPERATURE IN CELSIUS
VSB - VISIBILITY IN STATUTE MILES
WCI - WIND CHILL INDEX
HX  - HEAT INDEX



USA.gov is the U.S. government's official web portal to all federal, state and local government web resources and services.